Time,TemperatureF,DewpointF,PressureIn,WindDirection,WindDirectionDegrees,WindSpeedMPH,WindSpeedGustMPH,Humidity,HourlyPrecipIn,Conditions,Clouds,dailyrainin,SolarRadiationWatts/m^2,SoftwareType,DateUTC
2013-01-16 00:12:00,45.0,18.0,-100.00,NE,36,5.0,15.0,33,-99.99,,,0.11,0.000000,,2013-01-16 08:12:00,
2013-01-16 00:22:00,45.0,18.0,-100.00,NE,36,5.0,15.0,33,-99.99,,,0.11,0.000000,,2013-01-16 08:22:00,
2013-01-16 01:22:00,43.0,18.0,-100.00,NNE,13,7.0,14.0,36,-99.99,,,0.11,0.000000,,2013-01-16 09:22:00,
2013-01-16 02:12:00,44.0,16.0,-100.00,North,9,7.0,12.0,32,-99.99,,,0.11,0.000000,,2013-01-16 10:12:00,
2013-01-16 02:22:00,44.0,16.0,-100.00,North,9,7.0,12.0,32,-99.99,,,0.11,0.000000,,2013-01-16 10:22:00,
2013-01-16 03:12:00,43.0,17.0,-100.00,NNE,17,5.0,12.0,34,-99.99,,,0.11,0.000000,,2013-01-16 11:12:00,
2013-01-16 03:22:00,43.0,17.0,-100.00,NNE,17,5.0,12.0,34,-99.99,,,0.11,0.000000,,2013-01-16 11:22:00,
2013-01-16 03:51:00,43.0,16.0,-100.00,NNE,16,5.0,10.0,33,-99.99,,,0.11,0.000000,,2013-01-16 11:51:00,
2013-01-16 04:12:00,43.0,16.0,-100.00,NNE,16,5.0,10.0,33,-99.99,,,0.11,0.000000,,2013-01-16 12:12:00,
2013-01-16 04:22:00,43.0,16.0,-100.00,NNE,16,5.0,10.0,33,-99.99,,,0.11,0.000000,,2013-01-16 12:22:00,
2013-01-16 04:42:00,43.0,16.0,-100.00,NNE,16,5.0,10.0,33,-99.99,,,0.11,0.000000,,2013-01-16 12:42:00,
2013-01-16 04:51:00,40.0,15.0,-100.00,North,5,6.0,9.0,36,0.00,,,0.11,0.000000,,2013-01-16 12:51:00,
2013-01-16 05:12:00,40.0,15.0,-100.00,North,5,6.0,9.0,36,0.00,,,0.11,0.000000,,2013-01-16 13:12:00,
2013-01-16 05:22:00,40.0,15.0,-100.00,North,5,6.0,9.0,36,0.00,,,0.11,0.000000,,2013-01-16 13:22:00,
2013-01-16 05:32:00,40.0,15.0,-100.00,North,5,6.0,9.0,36,0.00,,,0.11,0.000000,,2013-01-16 13:32:00,
2013-01-16 05:42:00,40.0,15.0,-100.00,North,5,6.0,9.0,36,0.00,,,0.11,0.000000,,2013-01-16 13:42:00,
2013-01-16 05:51:00,39.0,12.0,-100.00,NNE,19,4.0,9.0,33,0.00,,,0.11,0.000000,,2013-01-16 13:51:00,
2013-01-16 06:12:00,39.0,12.0,-100.00,NNE,19,4.0,9.0,33,0.00,,,0.11,0.000000,,2013-01-16 14:12:00,
2013-01-16 06:22:00,39.0,12.0,-100.00,NNE,19,4.0,9.0,33,0.00,,,0.11,0.000000,,2013-01-16 14:22:00,
2013-01-16 06:32:00,39.0,12.0,-100.00,NNE,19,4.0,9.0,33,0.00,,,0.11,0.000000,,2013-01-16 14:32:00,
2013-01-16 06:42:00,39.0,12.0,-100.00,NNE,19,4.0,9.0,33,0.00,,,0.11,0.000000,,2013-01-16 14:42:00,
2013-01-16 06:51:00,43.0,14.0,-100.00,NNE,20,5.0,9.0,30,0.00,,,0.11,0.000000,,2013-01-16 14:51:00,
2013-01-16 07:12:00,43.0,14.0,-100.00,NNE,20,5.0,9.0,30,0.00,,,0.11,0.000000,,2013-01-16 15:12:00,
2013-01-16 07:22:00,43.0,14.0,-100.00,NNE,20,5.0,9.0,30,0.00,,,0.11,0.000000,,2013-01-16 15:22:00,
2013-01-16 07:43:00,43.0,14.0,-100.00,NNE,20,5.0,9.0,30,0.00,,,0.11,0.000000,,2013-01-16 15:43:00,
2013-01-16 07:51:00,44.0,15.0,-100.00,NNE,23,5.0,9.0,30,0.00,,,-99.99,43.000000,,2013-01-16 15:51:00,
2013-01-16 08:12:00,44.0,15.0,-100.00,NNE,23,5.0,9.0,30,0.00,,,-99.99,43.000000,,2013-01-16 16:12:00,
2013-01-16 08:22:00,44.0,15.0,-100.00,NNE,23,5.0,9.0,30,0.00,,,-99.99,43.000000,,2013-01-16 16:22:00,
2013-01-16 08:32:00,44.0,15.0,-100.00,NNE,23,5.0,9.0,30,0.00,,,-99.99,43.000000,,2013-01-16 16:32:00,
2013-01-16 08:42:00,44.0,15.0,-100.00,NNE,23,5.0,9.0,30,0.00,,,-99.99,43.000000,,2013-01-16 16:42:00,
2013-01-16 09:22:00,48.0,10.0,-100.00,NNE,29,4.0,10.0,21,-99.99,,,0.11,309.000000,,2013-01-16 17:22:00,
2013-01-16 09:51:00,48.0,7.0,-100.00,NNE,24,3.0,13.0,18,-99.99,,,0.11,450.000000,,2013-01-16 17:51:00,
2013-01-16 10:12:00,48.0,7.0,-100.00,NNE,24,3.0,13.0,18,-99.99,,,0.11,450.000000,,2013-01-16 18:12:00,
2013-01-16 10:22:00,48.0,7.0,-100.00,NNE,24,3.0,13.0,18,-99.99,,,0.11,450.000000,,2013-01-16 18:22:00,
2013-01-16 10:42:00,48.0,7.0,-100.00,NNE,24,3.0,13.0,18,-99.99,,,0.11,450.000000,,2013-01-16 18:42:00,
2013-01-16 10:51:00,52.0,7.0,-100.00,NNE,26,3.0,7.0,16,0.00,,,-99.99,694.000000,,2013-01-16 18:51:00,
2013-01-16 11:12:00,52.0,7.0,-100.00,NNE,26,3.0,7.0,16,0.00,,,-99.99,694.000000,,2013-01-16 19:12:00,
2013-01-16 11:23:00,52.0,7.0,-100.00,NNE,26,3.0,7.0,16,0.00,,,-99.99,694.000000,,2013-01-16 19:23:00,
2013-01-16 11:42:00,52.0,7.0,-100.00,NNE,26,3.0,7.0,16,0.00,,,-99.99,694.000000,,2013-01-16 19:42:00,
2013-01-16 11:51:00,53.0,7.0,-100.00,NNE,30,3.0,11.0,15,0.00,,,0.08,877.000000,,2013-01-16 19:51:00,
2013-01-16 12:12:00,53.0,7.0,-100.00,NNE,30,3.0,11.0,15,0.00,,,0.08,877.000000,,2013-01-16 20:12:00,
2013-01-16 12:42:00,53.0,7.0,-100.00,NNE,30,3.0,11.0,15,0.00,,,0.08,877.000000,,2013-01-16 20:42:00,
2013-01-16 13:22:00,56.0,9.0,-100.00,NNE,24,1.0,9.0,15,-99.99,,,0.04,911.000000,,2013-01-16 21:22:00,
2013-01-16 13:51:00,53.0,7.0,-100.00,NNE,22,2.0,6.0,15,-99.99,,,0.02,853.000000,,2013-01-16 21:51:00,
2013-01-16 14:22:00,53.0,7.0,-100.00,NNE,22,2.0,6.0,15,-99.99,,,0.02,853.000000,,2013-01-16 22:22:00,
2013-01-16 14:43:00,53.0,7.0,-100.00,NNE,22,2.0,6.0,15,-99.99,,,0.02,853.000000,,2013-01-16 22:43:00,
2013-01-16 14:51:00,51.0,0.0,-100.00,NNE,18,2.0,7.0,12,-99.99,,,0.01,709.000000,,2013-01-16 22:51:00,
2013-01-16 15:42:00,51.0,0.0,-100.00,NNE,18,2.0,7.0,12,-99.99,,,0.01,709.000000,,2013-01-16 23:42:00,
2013-01-16 15:51:00,47.0,2.0,-100.00,NE,36,2.0,6.0,15,-99.99,,,0.00,254.000000,,2013-01-16 23:51:00,
2013-01-16 16:22:00,47.0,2.0,-100.00,NE,36,2.0,6.0,15,-99.99,,,0.00,254.000000,,2013-01-17 00:22:00,
2013-01-16 16:42:00,47.0,2.0,-100.00,NE,36,2.0,6.0,15,-99.99,,,0.00,254.000000,,2013-01-17 00:42:00,
2013-01-16 16:51:00,45.0,0.0,-100.00,NNE,32,2.0,8.0,15,-99.99,,,0.00,29.000000,,2013-01-17 00:51:00,
2013-01-16 17:22:00,45.0,0.0,-100.00,NNE,32,2.0,8.0,15,-99.99,,,0.00,29.000000,,2013-01-17 01:22:00,
2013-01-16 17:42:00,45.0,0.0,-100.00,NNE,32,2.0,8.0,15,-99.99,,,0.00,29.000000,,2013-01-17 01:42:00,
2013-01-16 18:12:00,42.0,-1.0,-100.00,NNE,16,5.0,9.0,16,0.00,,,0.00,7.000000,,2013-01-17 02:12:00,
2013-01-16 18:22:00,42.0,-1.0,-100.00,NNE,16,5.0,9.0,16,0.00,,,0.00,7.000000,,2013-01-17 02:22:00,
2013-01-16 18:51:00,41.0,0.0,-100.00,North,8,6.0,10.0,17,0.00,,,0.00,0.000000,,2013-01-17 02:51:00,
2013-01-16 19:12:00,41.0,0.0,-100.00,North,8,6.0,10.0,17,0.00,,,0.00,0.000000,,2013-01-17 03:12:00,
2013-01-16 19:22:00,41.0,0.0,-100.00,North,8,6.0,10.0,17,0.00,,,0.00,0.000000,,2013-01-17 03:22:00,
2013-01-16 19:42:00,41.0,0.0,-100.00,North,8,6.0,10.0,17,0.00,,,0.00,0.000000,,2013-01-17 03:42:00,
2013-01-16 20:12:00,40.0,-5.0,-100.00,NNE,17,6.0,11.0,14,0.00,,,0.00,0.000000,,2013-01-17 04:12:00,
2013-01-16 20:22:00,40.0,-5.0,-100.00,NNE,17,6.0,11.0,14,0.00,,,0.00,0.000000,,2013-01-17 04:22:00,
2013-01-16 20:51:00,40.0,0.0,-100.00,NNE,15,6.0,10.0,18,-99.99,,,0.00,0.000000,,2013-01-17 04:51:00,
2013-01-16 21:22:00,40.0,0.0,-100.00,NNE,15,6.0,10.0,18,-99.99,,,0.00,0.000000,,2013-01-17 05:22:00,
2013-01-16 21:42:00,40.0,0.0,-100.00,NNE,15,6.0,10.0,18,-99.99,,,0.00,0.000000,,2013-01-17 05:42:00,
2013-01-16 21:51:00,40.0,0.0,-100.00,NNE,17,6.0,11.0,18,0.00,,,0.00,0.000000,,2013-01-17 05:51:00,
2013-01-16 22:12:00,40.0,0.0,-100.00,NNE,17,6.0,11.0,18,0.00,,,0.00,0.000000,,2013-01-17 06:12:00,
2013-01-16 22:22:00,40.0,0.0,-100.00,NNE,17,6.0,11.0,18,0.00,,,0.00,0.000000,,2013-01-17 06:22:00,
2013-01-16 22:42:00,40.0,0.0,-100.00,NNE,17,6.0,11.0,18,0.00,,,0.00,0.000000,,2013-01-17 06:42:00,
2013-01-16 22:51:00,39.0,2.0,-100.00,NNE,27,6.0,15.0,21,0.00,,,0.00,0.000000,,2013-01-17 06:51:00,
2013-01-16 23:12:00,39.0,2.0,-100.00,NNE,27,6.0,15.0,21,0.00,,,0.00,0.000000,,2013-01-17 07:12:00,
2013-01-16 23:22:00,39.0,2.0,-100.00,NNE,27,6.0,15.0,21,0.00,,,0.00,0.000000,,2013-01-17 07:22:00,
2013-01-16 23:32:00,39.0,2.0,-100.00,NNE,27,6.0,15.0,21,0.00,,,0.00,0.000000,,2013-01-17 07:32:00,
2013-01-16 23:42:00,39.0,2.0,-100.00,NNE,27,6.0,15.0,21,0.00,,,0.00,0.000000,,2013-01-17 07:42:00,
2013-01-16 23:51:00,40.0,0.0,-100.00,NE,39,5.0,12.0,18,0.00,,,0.00,0.000000,,2013-01-17 07:51:00,